Location: ??????
(30.5519°N, 47.7720°E)
Time: 16:22:22
(UTC+00:00)

CZ-2C R/B - Pass Details

Date: 24 January 2021
Orbit: 785 x 870 km, 98.2° (Epoch: 01 March)

Event Time Altitude Azimuth Distance (km) Brightness Sun altitude
Exits shadow 14:47:36 - 34° (NE) 3,387 5.4 -6.8°
Reaches altitude 10° 14:50:37 10° 53° (NE) 2,510 4.6 -7.4°
Maximum altitude 14:54:19 18° 94° (E) 2,006 4.1 -8.2°
Drops below altitude 10° 14:58:00 10° 136° (SE) 2,508 4.9 -8.9°
Sets 15:01:10 0° 155° (SSE) 3,438 5.8 -9.6°
